Погода в Сиднее

Австралия     33°52′24″S   151°12′42″E
темп.,
°C
ветер,
м/с
пор.,
м/с
влажн.,
%
обл.,
%
осадки,
мм/ч
давл.,
гПа
погр.,
м
20 апреля, вт
вт2001:00+13з36740 0.0 1015148
04:00+12з36620 0.0 1014132
07:00+11зсз34600 0.0 1015114
10:00+19зсз344017 0.0 1015590
13:00+23з2530100 0.0 10121540
16:00+22з2635100 0.0 1010856
19:00+17сз384988 0.0 1012217
22:00+17зсз3547100 0.0 1012115
21 апреля, ср
ср2101:00+15ссз33535 0.0 101066
04:00+14з365699 0.0 1009170
07:00+13зюз3662100 0.0 1011187
10:00+18з56450 0.1 10111206
13:00+20ю353811 0.0 10102112
16:00+18ю56604 0.1 10111136
19:00+16ююв47744 0.1 1013463
22:00+15юз237514 0.1 1014333
22 апреля, чт
чт2201:00+12з35844 0.1 1014142
04:00+11з35824 0.1 1013136
07:00+11з35782 0.0 1014172
10:00+17з34460 0.0 1013813
13:00+20зюз35330 0.0 10101642
16:00+20юз67290 0.0 10101808
19:00+16зюз610390 0.0 1013925
22:00+14зюз512490 0.0 1015598
23 апреля, пт
пт2301:00+12зюз511560 0.0 1015408
04:00+11з48630 0.0 1016227
07:00+10з35650 0.0 1017150
10:00+17зюз36440 0.0 1017868
13:00+20з34340 0.0 10161565
16:00+18юв44490 0.0 1015549
19:00+15вюв23630 0.0 1019250
22:00+14зсз11672 0.0 102050
24 апреля, сб
сб2401:00+12зюз237889 0.0 102092
04:00+12з237836 0.0 102090
07:00+11з24800 0.0 1022123
10:00+18зюз21510 0.0 1022617
13:00+20юв22440 0.0 10201316
16:00+18вюв44560 0.0 1020504
19:00+16вюв24700 0.0 1023341
22:00+15ю237729 0.2 1025242